#timestamp,LO_Frequency,Hit,StdDev 
1633694415.0,286046998.3,N
1633694415.9,286046998.3,N
1633694435.8,286046998.2,N
1633694455.6,286047000.6,N
1633694475.4,286047000.0,N
1633694495.3,286047000.4,N
1633694515.1,286046999.7,N
1633694535.9,286047002.6,N
1633694555.7,286047002.6,N
1633694575.5,286047002.5,N
1633694595.4,286047002.5,N
1633694615.2,286047002.4,N
1633694635.0,286047002.3,N
1633694636.0,286047002.3,N
1633694655.8,286046999.8,N
1633694675.6,286046999.8,N
1633694695.5,286047002.4,N
1633694715.3,286047000.4,N
1633694735.1,286047000.2,N
1633694755.9,286046999.8,N
1633694775.7,286047000.1,N
1633694795.6,286047000.4,N
1633694815.4,286047000.3,N
1633694835.2,286047000.1,N
1633694855.1,286046999.8,N
1633694856.0,286046999.8,N
1633694875.8,286047002.7,N
1633694895.7,286047002.8,N
1633694915.5,286047000.2,N
1633694935.3,286047002.4,N
1633694955.2,286047000.5,N
1633694975.0,286047000.9,N
1633694975.9,286047000.9,N
1633694995.8,286047000.2,N
1633695015.6,286047000.9,N
1633695035.4,286046998.5,N
1633695055.3,286047000.6,N
1633695075.1,286046998.5,N
1633695095.8,286047000.9,N
1633695115.7,286046998.2,N
1633695135.5,286046999.7,N
1633695155.4,286047000.0,N
1633695175.2,286047002.8,N
1633695195.0,286047000.4,N
1633695195.9,286047000.4,N
1633695215.8,286047000.0,N
1633695235.6,286046999.8,N
1633695255.5,286047000.5,N
1633695275.3,286047000.6,N
1633695295.1,286047000.8,N
1633695315.9,286046998.2,N
1633695335.7,286047000.7,N
1633695355.6,286047001.1,N
1633695375.4,286047000.7,N
1633695395.2,286047000.6,N
1633695415.1,286047000.5,N
1633695416.0,286047000.5,N
1633695435.8,286047001.0,N
1633695455.7,286047000.4,N
1633695475.5,286047000.6,N
1633695495.3,286046998.1,N
1633695515.2,286046999.4,N
1633695535.0,286046998.9,N
1633695535.9,286046998.9,N
1633695555.7,286046998.8,N
1633695575.6,286047000.5,N
1633695595.4,286046999.9,N
1633695615.3,286047000.2,N
1633695635.1,286047002.8,N
1633695655.8,286047000.1,N
1633695675.7,286047000.5,N
1633695695.5,286047000.5,N
1633695715.4,286047002.2,N
1633695735.2,286047002.3,N
1633695755.0,286047001.6,N
1633695755.9,286047001.6,N
1633695775.8,286047004.3,Y
1633695795.6,286047002.2,P
1633695815.5,286047002.4,N
1633695835.3,286047000.7,N
1633695855.1,286047000.7,N
1633695875.9,286047001.1,N
1633695895.7,286047000.7,N
1633695915.5,286047000.9,N
1633695935.6,286047001.1,N
1633695955.5,286047001.1,N
1633695975.3,286046998.5,N
1633695995.1,286046996.6,Y
1633696015.9,286046996.5,P
1633696035.7,286046998.8,N
1633696055.6,286046999.3,N
1633696075.4,286046998.4,N
1633696095.2,286047000.8,N
1633696115.1,286047000.4,N
1633696116.0,286047000.4,N
1633696135.8,286047000.1,N
1633696155.6,286046998.5,N
1633696175.5,286047000.9,N
1633696195.3,286047000.7,N
1633696215.2,286047001.0,N
1633696235.9,286047000.8,N
1633696255.7,286047000.1,N
1633696275.6,286047002.3,N
1633696295.4,286047000.6,N
1633696315.2,286047000.4,N
1633696335.1,286047000.6,N
1633696336.0,286047000.6,N
1633696355.8,286046998.4,N
1633696375.7,286047000.9,N
1633696395.5,286047000.2,N
1633696415.3,286047002.8,N
1633696435.2,286047000.2,N
1633696455.0,286047000.7,N
1633696455.9,286047000.7,N
1633696475.8,286047000.8,N
1633696495.6,286047001.0,N
1633696515.4,286046998.8,N
1633696535.3,286046998.8,N
1633696555.1,286047000.6,N
1633696575.8,286046998.1,N
1633696595.7,286046998.5,N
1633696615.5,286047001.2,N
1633696635.4,286046999.2,N
1633696655.2,286046996.5,Y
1633696675.0,286046998.7,P
1633696675.9,286046998.7,N
1633696695.8,286046998.3,N
1633696715.6,286046999.0,N
1633696735.5,286046996.5,Y
1633696755.3,286047001.1,P
1633696775.1,286046998.4,N
1633696795.9,286047000.8,N
1633696815.7,286047001.2,N
1633696835.5,286047000.4,N
1633696855.4,286047000.7,N
1633696875.2,286047002.7,N
1633696895.1,286047002.7,N
1633696896.0,286047002.7,N
1633696915.8,286047002.8,N
1633696935.6,286047001.6,N
1633696955.5,286047002.0,N
1633696975.3,286047004.0,N
1633696995.1,286047003.2,N
1633697015.9,286047003.7,N
1633697035.7,286047004.0,N
1633697055.6,286047003.5,N
1633697075.4,286047005.5,Y
1633697095.2,286047001.4,P
1633697115.1,286047004.4,P
1633697116.0,286047004.4,P
1633697135.8,286046999.7,N
1633697155.7,286047001.1,N
1633697175.5,286047001.2,N
1633697195.3,286046998.1,N
1633697215.2,286046999.6,N
1633697235.0,286046996.8,N
1633697235.9,286046996.8,N
1633697255.7,286046999.1,N
1633697275.6,286047001.2,N
1633697295.4,286046998.3,N
1633697315.3,286047000.8,N
1633697335.1,286047000.8,N
1633697336.0,286047000.8,N
1633697355.8,286047001.0,N
1633697375.7,286046998.3,N
1633697395.5,286046996.9,N
1633697415.4,286046999.6,N
1633697435.2,286046999.1,N
1633697455.0,286046996.6,N
1633697455.9,286046996.6,N
1633697475.8,286046997.0,N
1633697495.6,286046996.8,N
1633697515.4,286046999.1,N
1633697535.3,286047000.3,N
1633697555.1,286046999.8,N
1633697575.9,286047002.3,N
1633697595.7,286047000.5,N
1633697615.5,286047000.9,N
1633697635.4,286047000.3,N
1633697655.2,286046999.8,N
1633697675.1,286047002.6,N
1633697676.0,286047002.6,N
1633697695.8,286047002.6,N
1633697715.6,286047002.2,N
1633697735.5,286046999.8,N
1633697755.3,286047001.9,N
1633697775.2,286047004.3,N
1633697795.9,286047003.9,N
1633697815.7,286047004.0,N
1633697835.6,286047003.6,N
1633697855.4,286047003.6,N
1633697875.2,286047003.6,N
1633697895.1,286047003.1,N
1633697896.0,286047003.1,N
1633697915.8,286047003.3,N
1633697935.7,286047005.6,N
1633697955.5,286047003.6,N
1633697975.3,286047003.2,N
1633697995.2,286047003.9,N
